[[{"header":{"parameterUnit":"m.s-1","parameterCategory":1,"la1":30.2991,"la2":30.254,"lo1":-89.0895,"lo2":-89.0444,"dy":0.0017,"dx":0.0017,"nx":28,"ny":28,"refTime":"2025-06-14T09:00:00:Z","depth":0,"parameterNumber":2,"parameterNumberName":"U-component_of_WINDS"},"data":[0,0,0,0,0,0,0,0,0,0,0,0,0,0,0,0,0,0,0,0,0,0,0,0,0,0,0,0,0,0,0,0,0,0,0,0,0,0,0,0,0,0,0,0,0,0,0,0,0,0,0,0,0,0,0,0,0,0,3.1177,3.1178,0,3.1203,3.1204,3.1204,3.114,3.1138,3.1136,3.1134,3.1161,3.1163,3.1166,0,0,0,0,0,0,0,0,0,0,0,0,0,3.1071,3.1073,3.1177,3.1178,3.1178,3.1203,3.1204,3.1204,3.114,3.1138,3.1135,3.1133,3.116,3.1163,3.1166,0,0,0,0,0,0,0,0,0,0,0,0,0,3.1109,3.1074,3.1177,3.1149,3.1147,3.1203,3.1204,3.1204,3.1141,3.1137,3.1134,3.1132,3.1159,3.1163,3.1166,3.1252,0,0,3.1178,3.118,0,0,0,0,0,0,0,0,3.1107,3.1113,3.1153,3.1151,3.1149,3.1165,3.1176,3.122,3.1141,3.1143,3.1134,3.113,3.1165,3.1168,3.1179,3.1253,3.1254,3.1179,3.1181,3.1183,3.1184,0,0,0,0,0,0,0,3.1104,3.1111,3.1188,3.1154,3.1151,3.1135,3.1137,3.1184,3.1171,3.1143,3.1138,3.1142,3.1163,3.1176,3.118,3.1254,3.1179,3.1182,3.1185,3.1186,3.1394,3.1397,0,0,0,0,0,0,3.1105,3.111,3.1187,3.1188,3.112,3.1139,3.1141,3.1163,3.117,3.1168,3.1144,3.1139,3.1171,3.1175,3.118,3.1277,3.1183,3.1187,3.1189,3.1391,3.1395,3.1398,0,0,0,0,0,0,3.1103,3.1113,3.1186,3.1148,3.1156,3.1144,3.1169,3.1165,3.1178,3.1171,3.1169,3.116,3.1168,3.1175,3.1233,3.1277,3.1188,3.1192,3.1387,3.1392,3.1397,3.1473,0,0,0,0,0,0,3.1101,3.1113,3.1145,3.1149,3.1158,3.1239,3.1172,3.1168,3.1185,3.1178,3.1185,3.1184,3.1167,3.1228,3.1237,3.1281,3.1195,3.1383,3.139,3.1395,3.1466,3.148,3.1491,0,0,0,0,0,3.1097,3.1167,3.1147,3.1157,3.1199,3.1242,3.1247,3.1226,3.1189,3.1221,3.1216,3.1183,3.1271,3.1234,3.1244,3.129,3.1381,3.1388,3.1395,3.1461,3.1477,3.1491,0,0,0,0,0,0,3.117,3.1167,3.1145,3.1219,3.1231,3.1231,3.1271,3.1244,3.1267,3.126,3.1233,3.1235,3.1298,3.13,3.1259,3.137,3.1319,3.1329,3.1366,3.1382,3.1394,3.1391,3.1198,0,0,0,0,0,3.1194,3.123,3.1225,3.129,3.1297,3.1283,3.1301,3.1283,3.1295,3.13,3.13,3.1312,3.1342,3.1362,3.139,3.1467,3.1466,3.1503,3.1516,3.1526,3.1533,3.157,3.1586,3.1422,3.1422,3.1422,0,0,3.1246,3.1248,3.1272,3.1305,3.1312,3.1348,3.1288,3.133,3.1355,3.1306,3.136,3.1361,3.1373,3.144,3.1469,3.1444,3.1579,3.1535,3.1543,3.1545,3.1579,3.1595,3.1609,3.1427,3.1426,3.1425,0,0,3.1356,3.1363,3.1416,3.1424,3.1435,3.1425,3.1438,3.1441,3.1439,3.1493,3.1456,3.1486,3.1539,3.1548,3.1559,3.167,3.164,3.1681,3.1744,3.1781,3.1793,3.1805,3.1841,3.1854,3.1689,3.1689,3.1689,0,3.1418,3.1471,3.1447,3.1489,3.1503,3.146,3.1512,3.1521,3.1541,3.1551,3.1522,3.1586,3.1591,3.1658,3.1684,3.1696,3.1708,3.1678,3.1794,3.1805,3.1815,3.1849,3.1863,3.1693,3.1693,3.1693,3.1692,0,3.1544,3.1581,3.1622,3.1641,3.166,3.1707,3.1689,3.1711,3.1692,3.1684,3.1738,3.1743,3.1768,3.1783,3.1766,3.1847,3.183,3.1798,3.1746,3.1835,3.1866,3.188,3.17,3.1698,3.1697,3.1696,0,0,3.1701,3.1704,3.1719,3.1725,3.1733,3.1761,3.1806,3.183,3.1848,3.1863,3.1898,3.1943,3.1912,3.1925,3.1908,3.1941,3.2023,3.1904,3.1904,3.1923,3.2109,3.213,3.2146,3.2004,3.2007,3.2009,3.2107,0,3.1807,3.1883,3.1861,3.1936,3.1968,3.1926,3.1964,3.1973,3.1967,3.1992,3.1986,3.2016,3.1976,3.1982,3.2013,3.2007,3.206,3.2,3.2034,3.2036,3.2029,3.2163,3.2187,3.2279,3.2119,3.2121,3.2123,0,3.1941,3.1959,3.2037,3.2036,3.2048,3.2083,3.2102,3.2128,3.2136,3.2129,3.2142,3.2117,3.2159,3.2109,3.2165,3.2125,3.2138,3.2137,3.214,3.214,3.2083,3.2163,3.2308,3.2321,3.2143,3.2141,3.214,0,3.2043,3.2087,3.2138,3.2145,3.2147,3.2171,3.2173,3.2178,3.2193,3.221,3.2219,3.2241,3.2252,3.227,3.2251,3.2216,3.2309,3.2257,3.2302,3.2302,3.2321,3.232,3.2467,3.2335,3.2335,3.2335,3.2335,0,3.2162,3.221,3.2183,3.2214,3.2266,3.2241,3.2293,3.229,3.2294,3.2323,3.229,3.2318,3.2293,3.2318,3.2304,3.235,3.2357,3.2351,3.2346,3.2352,3.2352,3.2358,3.235,3.2339,3.2338,3.2337,3.2336,0,3.2284,3.2268,3.232,3.2316,3.2316,3.2354,3.2351,3.2379,3.237,3.2407,3.2414,3.24,3.2427,3.2411,3.244,3.243,3.249,3.2478,3.2486,3.2482,3.2526,3.2521,3.2679,3.2697,3.2558,3.2559,3.256,0,3.2359,3.2394,3.2394,3.241,3.2413,3.2441,3.2455,3.2431,3.2447,3.2457,3.2483,3.2508,3.2526,3.2572,3.2564,3.2585,3.2572,3.2626,3.2575,3.2578,3.2568,3.2565,3.2567,3.2635,3.2637,3.2638,3.2639,0,3.2493,3.2482,3.2503,3.2521,3.2539,3.2552,3.2563,3.2579,3.2554,3.2574,3.2601,3.2615,3.2643,3.2667,3.2684,3.2686,3.2658,3.2656,3.2666,3.2671,3.2673,3.2669,3.2511,3.2652,3.265,3.2649,3.2649,3.2648,3.2591,3.2619,3.2621,3.2645,3.265,3.266,3.2685,3.2678,3.27,3.272,3.2705,3.2737,3.2741,3.2761,3.2766,3.279,3.2768,3.2784,3.2788,3.2792,3.2796,3.2672,3.2793,3.2793,3.2793,3.2792,3.2792,0,3.2719,3.2718,3.2741,3.2755,3.2773,3.2746,3.2755,3.2772,3.28,3.2806,3.2824,3.2854,3.2876,3.287,3.2889,3.2909,3.2897,3.2915,3.2911,3.2911,3.2816,3.2803,3.2924,3.2924,3.2924,3.2924,3.2924,3.2924,3.2788,3.2832,3.2822,3.2868,3.2867,3.2896,3.2904,3.2912,3.2916,3.2951,3.2968,3.2964,3.2964,3.2983,3.3002,3.2999,3.3007,3.3029,3.3021,3.2932,3.2919,3.2906,3.2893,3.3032,3.3032,3.3114,3.3115,3.3115]},{"header":{"parameterUnit":"m.s-1","parameterCategory":1,"la1":30.2991,"la2":30.254,"lo1":-89.0895,"lo2":-89.0444,"dy":0.0017,"dx":0.0017,"nx":28,"ny":28,"refTime":"2025-06-14T09:00:00:Z","depth":0,"parameterNumber":3,"parameterNumberName":"V-component_of_WINDS"},"data":[0,0,0,0,0,0,0,0,0,0,0,0,0,0,0,0,0,0,0,0,0,0,0,0,0,0,0,0,0,0,0,0,0,0,0,0,0,0,0,0,0,0,0,0,0,0,0,0,0,0,0,0,0,0,0,0,0,0,4.9432,4.9434,0,4.9588,4.959,4.9592,4.9559,4.9556,4.9553,4.955,4.9706,4.9712,4.9719,0,0,0,0,0,0,0,0,0,0,0,0,0,4.9098,4.9104,4.9432,4.9434,4.9436,4.9588,4.959,4.9592,4.9559,4.9556,4.9552,4.9549,4.9703,4.9711,4.972,0,0,0,0,0,0,0,0,0,0,0,0,0,4.9247,4.9106,4.9431,4.9438,4.944,4.9588,4.959,4.9593,4.956,4.9555,4.9551,4.9547,4.9701,4.9711,4.9721,4.9871,0,0,4.9752,4.9757,0,0,0,0,0,0,0,0,4.9239,4.926,4.9435,4.9437,4.944,4.955,4.9529,4.9686,4.9561,4.9514,4.955,4.9545,4.9657,4.967,4.9709,4.9878,4.9885,4.9753,4.9759,4.9764,4.9767,0,0,0,0,0,0,0,4.9229,4.9253,4.9494,4.9437,4.9441,4.943,4.9447,4.9559,4.9608,4.9518,4.9516,4.9535,4.9657,4.9699,4.9713,4.9887,4.9753,4.9762,4.9768,4.9772,5.0183,5.0188,0,0,0,0,0,0,4.9217,4.9244,4.9489,4.9498,4.9327,4.944,4.9458,4.9519,4.9606,4.9616,4.9539,4.9533,4.9684,4.9701,4.9718,4.9897,4.9764,4.9773,4.9779,5.0178,5.0184,5.0189,0,0,0,0,0,0,4.921,4.9239,4.9482,4.9371,4.9401,4.945,4.9518,4.9524,4.9566,4.9622,4.963,4.9573,4.9681,4.9703,4.9833,4.9902,4.9778,4.9787,5.0173,5.018,5.0187,5.0258,0,0,0,0,0,0,4.92,4.9237,4.9296,4.9373,4.9407,4.9597,4.9523,4.953,4.9584,4.9578,4.9656,4.9665,4.968,4.9817,4.9843,4.9914,4.9795,5.0167,5.0176,5.0185,5.025,5.0267,5.0282,0,0,0,0,0,4.9189,4.9309,4.9299,4.9329,4.9483,4.9601,4.962,4.9636,4.959,4.9649,4.9684,4.9663,4.9891,4.9831,4.9859,4.9935,5.0162,5.0173,5.0184,5.0243,5.0264,5.0281,0,0,0,0,0,0,4.9239,4.932,4.9309,4.9459,4.9523,4.9595,4.967,4.9658,4.9735,4.9726,4.9741,4.9758,4.9889,4.9925,4.9857,5.0083,5.002,5.0037,5.0055,5.0075,5.0091,5.0079,4.9804,0,0,0,0,0,4.9267,4.9358,4.9423,4.9549,4.9582,4.962,4.9672,4.9679,4.9745,4.9772,4.9817,4.9881,4.9967,5.0023,5.0105,5.0255,5.027,5.032,5.0336,5.0349,5.0363,5.0442,5.0465,5.0225,5.0224,5.0224,0,0,4.9327,4.9383,4.9439,4.9561,4.9611,4.9703,4.9644,4.9744,4.9811,4.9787,4.9911,4.9946,5.0018,5.0158,5.0222,5.0191,5.0433,5.0363,5.0372,5.038,5.0455,5.0478,5.0498,5.0232,5.0231,5.0229,0,0,4.9483,4.9535,4.9644,4.9696,4.9774,4.9798,4.9824,4.9898,4.992,5.0046,5.0029,5.0108,5.0256,5.0307,5.0353,5.0525,5.0507,5.0551,5.0634,5.0711,5.073,5.0746,5.0806,5.0827,5.0565,5.0566,5.0566,0,4.9547,4.9686,4.9701,4.9803,4.9856,4.9839,4.9948,4.9997,5.0097,5.0132,5.0097,5.0281,5.0329,5.0479,5.0521,5.0559,5.0587,5.0542,5.0726,5.0743,5.0759,5.0816,5.0838,5.057,5.057,5.0569,5.0569,0,4.976,4.9856,4.9935,5.0033,5.0094,5.0199,5.0228,5.0288,5.0288,5.0315,5.0441,5.0498,5.059,5.0626,5.0627,5.0775,5.0754,5.0723,5.0659,5.0786,5.084,5.0862,5.0577,5.0575,5.0574,5.0573,0,0,4.9952,5.0056,5.0085,5.0127,5.0211,5.0285,5.0387,5.0478,5.0528,5.0597,5.0682,5.0807,5.0778,5.0829,5.0836,5.0903,5.1033,5.0863,5.0865,5.0891,5.1197,5.1219,5.1244,5.1022,5.1026,5.103,5.119,0,5.0114,5.0297,5.0313,5.0476,5.0564,5.0548,5.0636,5.0696,5.0723,5.08,5.0829,5.0917,5.0873,5.0904,5.097,5.1004,5.1095,5.0992,5.1098,5.1102,5.108,5.1273,5.1297,5.1446,5.1212,5.1215,5.1218,0,5.0328,5.0403,5.0576,5.0645,5.0682,5.0762,5.0845,5.092,5.0985,5.1,5.1057,5.1054,5.1156,5.109,5.123,5.116,5.1204,5.1227,5.1233,5.1242,5.1167,5.1286,5.1495,5.1516,5.1251,5.1249,5.1246,0,5.0448,5.0593,5.0714,5.0752,5.0836,5.0892,5.0929,5.0991,5.1044,5.1116,5.115,5.1233,5.1278,5.1341,5.1359,5.1309,5.1497,5.1433,5.1511,5.151,5.1551,5.1548,5.1768,5.1581,5.1581,5.158,5.158,0,5.0627,5.0732,5.0769,5.0844,5.0961,5.0976,5.1091,5.1124,5.1179,5.1258,5.1249,5.1322,5.1342,5.1419,5.1433,5.1545,5.1566,5.1579,5.1582,5.158,5.1578,5.1608,5.1598,5.1586,5.1585,5.1584,5.1583,0,5.0781,5.0811,5.0941,5.101,5.1029,5.1112,5.117,5.124,5.1265,5.1365,5.1389,5.1429,5.1518,5.1542,5.165,5.1659,5.1791,5.1784,5.1769,5.1768,5.1844,5.1836,5.209,5.2124,5.1917,5.1919,5.192,0,5.0892,5.0973,5.105,5.1103,5.1143,5.1228,5.1282,5.1299,5.1355,5.1435,5.1495,5.1584,5.1655,5.1798,5.1835,5.1916,5.1911,5.1994,5.1923,5.1917,5.191,5.1904,5.1911,5.2007,5.2009,5.2011,5.2013,0,5.1086,5.1096,5.1175,5.1259,5.1324,5.139,5.1454,5.1497,5.1523,5.1586,5.1678,5.1734,5.1843,5.193,5.2011,5.2047,5.2034,5.2035,5.2057,5.2055,5.2042,5.2048,5.1804,5.2029,5.2027,5.2026,5.2025,5.2025,5.1221,5.1291,5.1356,5.1444,5.1493,5.1553,5.1621,5.1655,5.1733,5.1824,5.1829,5.1928,5.1989,5.2097,5.2137,5.2213,5.2188,5.222,5.2228,5.2235,5.2241,5.2031,5.2228,5.2228,5.2227,5.2227,5.2227,0,5.1413,5.1453,5.1534,5.1623,5.1691,5.1674,5.1743,5.18,5.1888,5.1947,5.2018,5.2122,5.2205,5.2249,5.2331,5.2383,5.2379,5.2404,5.24,5.2408,5.226,5.2232,5.2406,5.2406,5.2406,5.2406,5.2406,5.2406,5.1521,5.1638,5.1655,5.1796,5.1835,5.1933,5.1973,5.2027,5.2074,5.2191,5.2261,5.2289,5.234,5.2426,5.2501,5.2511,5.2541,5.257,5.2576,5.2437,5.2419,5.2401,5.2375,5.2576,5.2577,5.2718,5.2719,5.272]}]]